| time (UTC) | temp C | wind direction | speed KPH | gust KPH | rain 1hr cm | rain 24hr cm | rain mn cm | humidity % | barometer mb |
| 20260507100401 | 22 | 160 | 3.2 | 8.0 | 0.00 | 0.00 | 0.00 | 57 | 1011.6 |
| 20260507095856 | 21 | 203 | 4.8 | 11.3 | 0.00 | 0.00 | 0.00 | 59 | 1011.5 |
| 20260507095350 | 21 | 80 | 8.0 | 14.5 | 0.00 | 0.00 | 0.00 | 60 | 1011.5 |
| 20260507094844 | 21 | 71 | 6.4 | 14.5 | 0.00 | 0.00 | 0.00 | 60 | 1011.5 |
| 20260507094334 | 21 | 90 | 4.8 | 12.9 | 0.00 | 0.00 | 0.00 | 64 | 1011.7 |
| 20260507093831 | 21 | 87 | 3.2 | 12.9 | 0.00 | 0.00 | 0.00 | 62 | 1011.6 |
| 20260507093332 | 21 | 256 | 0.0 | 6.4 | 0.00 | 0.00 | 0.00 | 61 | 1011.6 |
| 20260507093113 | 20 | 198 | 1.6 | 4.8 | 0.00 | 0.00 | 0.00 | 62 | 1011.6 |
| 20260507092330 | 20 | 153 | 1.6 | 6.4 | 0.00 | 0.00 | 0.00 | 64 | 1011.6 |
| 20260507092110 | 19 | 259 | 3.2 | 9.7 | 0.00 | 0.00 | 0.00 | 66 | 1011.5 |
| 20260507091609 | 20 | 179 | 3.2 | 9.7 | 0.00 | 0.00 | 0.00 | 66 | 1011.6 |
| 20260507090829 | 20 | 143 | 3.2 | 6.4 | 0.00 | 0.00 | 0.00 | 69 | 1011.5 |
| 20260507090330 | 19 | 281 | 3.2 | 8.0 | 0.00 | 0.00 | 0.00 | 69 | 1011.4 |
| 20260507085830 | 19 | 175 | 1.6 | 8.0 | 0.00 | 0.00 | 0.00 | 70 | 1011.4 |
| 20260507085329 | 19 | 122 | 3.2 | 9.7 | 0.00 | 0.00 | 0.00 | 71 | 1011.4 |
| 20260507084829 | 19 | 40 | 4.8 | 11.3 | 0.00 | 0.00 | 0.00 | 72 | 1011.3 |
| 20260507084330 | 18 | 113 | 3.2 | 11.3 | 0.00 | 0.00 | 0.00 | 72 | 1011.2 |
| 20260507083832 | 18 | 113 | 1.6 | 6.4 | 0.00 | 0.00 | 0.00 | 73 | 1011.2 |
| 20260507083333 | 18 | 81 | 1.6 | 6.4 | 0.00 | 0.00 | 0.00 | 76 | 1011.1 |
| 20260507082829 | 17 | 121 | 1.6 | 6.4 | 0.00 | 0.00 | 0.00 | 76 | 1010.8 |
| 20260507082330 | 17 | 146 | 1.6 | 9.7 | 0.00 | 0.00 | 0.00 | 79 | 1010.9 |
| 20260507081828 | 17 | 165 | 3.2 | 11.3 | 0.00 | 0.00 | 0.00 | 79 | 1010.8 |
| 20260507081330 | 17 | 117 | 3.2 | 11.3 | 0.00 | 0.00 | 0.00 | 78 | 1010.8 |
| 20260507081120 | 17 | 117 | 1.6 | 8.0 | 0.00 | 0.00 | 0.00 | 78 | 1010.9 |
| 20260507080330 | 17 | 100 | 1.6 | 6.4 | 0.00 | 0.00 | 0.00 | 79 | 1010.8 |
| 20260507075828 | 17 | 103 | 1.6 | 4.8 | 0.00 | 0.00 | 0.00 | 80 | 1010.8 |
| 20260507075400 | 16 | 53 | 1.6 | 6.4 | 0.00 | 0.00 | 0.00 | 80 | 1010.6 |
| 20260507075352 | 16 | 121 | 1.6 | 6.4 | 0.00 | 0.00 | 0.00 | 81 | 1010.7 |
| 20260507074331 | 17 | 84 | 1.6 | 6.4 | 0.00 | 0.00 | 0.00 | 80 | 1010.7 |
| 20260507073830 | 16 | 117 | 1.6 | 6.4 | 0.00 | 0.00 | 0.00 | 82 | 1010.6 |
| 20260507073329 | 16 | 136 | 0.0 | 3.2 | 0.00 | 0.00 | 0.00 | 81 | 1010.6 |
| 20260507073119 | 16 | 111 | 0.0 | 3.2 | 0.00 | 0.00 | 0.00 | 81 | 1010.6 |
| 20260507072333 | 16 | 126 | 1.6 | 6.4 | 0.00 | 0.00 | 0.00 | 81 | 1010.5 |
| 20260507071830 | 16 | 74 | 1.6 | 6.4 | 0.00 | 0.00 | 0.00 | 85 | 1010.5 |
| 20260507071331 | 16 | 58 | 1.6 | 6.4 | 0.00 | 0.00 | 0.00 | 84 | 1010.2 |
| 20260507070829 | 16 | 57 | 1.6 | 4.8 | 0.00 | 0.00 | 0.00 | 83 | 1010.2 |
| 20260507070325 | 15 | 77 | 1.6 | 4.8 | 0.00 | 0.00 | 0.00 | 85 | 1010.2 |
| 20260507065822 | 15 | 82 | 1.6 | 4.8 | 0.00 | 0.00 | 0.00 | 86 | 1010.1 |
| 20260507065321 | 15 | 54 | 0.0 | 3.2 | 0.00 | 0.00 | 0.00 | 87 | 1010.0 |
| 20260507064819 | 15 | 87 | 0.0 | 3.2 | 0.00 | 0.00 | 0.00 | 86 | 1009.9 |
| 20260507064319 | 15 | 300 | 0.0 | 3.2 | 0.00 | 0.00 | 0.00 | 88 | 1009.9 |
| 20260507064049 | 15 | 279 | 0.0 | 3.2 | 0.00 | 0.00 | 0.00 | 87 | 1009.9 |
| 20260507063303 | 15 | 317 | 0.0 | 3.2 | 0.00 | 0.00 | 0.00 | 88 | 1009.9 |
| 20260507063046 | 15 | 304 | 0.0 | 3.2 | 0.00 | 0.00 | 0.00 | 88 | 1009.9 |
| 20260507062258 | 15 | 93 | 0.0 | 3.2 | 0.00 | 0.00 | 0.00 | 88 | 1009.9 |
| 20260507061801 | 15 | 93 | 1.6 | 6.4 | 0.00 | 0.00 | 0.00 | 88 | 1009.9 |
| 20260507061244 | 14 | 116 | 1.6 | 6.4 | 0.00 | 0.00 | 0.00 | 89 | 1009.8 |
| 20260507061022 | 14 | 0 | 0.0 | 3.2 | 0.00 | 0.00 | 0.00 | 90 | 1009.8 |
| 20260507060238 | 14 | 337 | 0.0 | 3.2 | 0.00 | 0.00 | 0.00 | 91 | 1009.6 |
| 20260507060016 | 14 | 29 | 0.0 | 3.2 | 0.00 | 0.00 | 0.00 | 91 | 1009.5 |
| 20260507055232 | 14 | 123 | 0.0 | 3.2 | 0.00 | 0.00 | 0.00 | 92 | 1009.5 |
| 20260507054729 | 14 | 101 | 0.0 | 3.2 | 0.00 | 0.00 | 0.00 | 91 | 1009.5 |
| 20260507054229 | 13 | 101 | 0.0 | 3.2 | 0.00 | 0.00 | 0.00 | 91 | 1009.4 |
| 20260507053730 | 13 | 164 | 0.0 | 3.2 | 0.00 | 0.00 | 0.00 | 92 | 1009.3 |
| 20260507053230 | 13 | 247 | 0.0 | 3.2 | 0.00 | 0.00 | 0.00 | 92 | 1009.4 |
| 20260507052732 | 13 | 286 | 0.0 | 3.2 | 0.00 | 0.00 | 0.00 | 93 | 1009.2 |
| 20260507052223 | 13 | 312 | 0.0 | 3.2 | 0.00 | 0.00 | 0.00 | 93 | 1009.2 |
| 20260507051720 | 13 | 106 | 0.0 | 3.2 | 0.00 | 0.00 | 0.00 | 93 | 1009.1 |
| 20260507051215 | 13 | 65 | 0.0 | 3.2 | 0.00 | 0.00 | 0.00 | 93 | 1009.1 |
| 20260507050711 | 13 | 65 | 0.0 | 3.2 | 0.00 | 0.00 | 0.00 | 94 | 1009.0 |
| 20260507050203 | 13 | 65 | 0.0 | 3.2 | 0.00 | 0.00 | 0.00 | 94 | 1009.0 |
| 20260507045700 | 13 | 65 | 1.6 | 4.8 | 0.00 | 0.00 | 0.00 | 94 | 1009.0 |
| 20260507045156 | 13 | 65 | 1.6 | 4.8 | 0.00 | 0.00 | 0.00 | 93 | 1009.0 |
| 20260507044655 | 13 | 79 | 0.0 | 3.2 | 0.00 | 0.00 | 0.00 | 93 | 1008.9 |
| 20260507044413 | 13 | 126 | 1.6 | 3.2 | 0.00 | 0.00 | 0.00 | 93 | 1008.7 |
| 20260507043626 | 13 | 78 | 1.6 | 3.2 | 0.00 | 0.00 | 0.00 | 94 | 1008.7 |
| 20260507043117 | 13 | 117 | 1.6 | 3.2 | 0.00 | 0.00 | 0.00 | 94 | 1008.7 |
| 20260507042612 | 13 | 66 | 1.6 | 3.2 | 0.00 | 0.00 | 0.00 | 94 | 1008.6 |
| 20260507042110 | 12 | 120 | 0.0 | 3.2 | 0.00 | 0.00 | 0.00 | 94 | 1008.6 |
| 20260507041606 | 12 | 150 | 0.0 | 3.2 | 0.00 | 0.00 | 0.00 | 94 | 1008.6 |
| 20260507041346 | 12 | 150 | 0.0 | 3.2 | 0.00 | 0.00 | 0.00 | 93 | 1008.5 |
| 20260507040604 | 12 | 205 | 0.0 | 3.2 | 0.00 | 0.00 | 0.00 | 93 | 1008.4 |
| 20260507040106 | 12 | 229 | 0.0 | 3.2 | 0.00 | 0.00 | 0.00 | 93 | 1008.4 |
| 20260507035557 | 12 | 294 | 0.0 | 3.2 | 0.00 | 0.00 | 0.00 | 93 | 1008.3 |
| 20260507035031 | 12 | 294 | 0.0 | 1.6 | 0.00 | 0.00 | 0.00 | 92 | 1008.4 |
| 20260507034516 | 12 | 276 | 1.6 | 3.2 | 0.00 | 0.00 | 0.00 | 92 | 1008.4 |
| 20260507034018 | 13 | 275 | 1.6 | 3.2 | 0.00 | 0.00 | 0.00 | 93 | 1008.4 |
| 20260507033514 | 12 | 257 | 1.6 | 3.2 | 0.00 | 0.00 | 0.00 | 93 | 1008.3 |
| 20260507033003 | 12 | 307 | 0.0 | 3.2 | 0.00 | 0.00 | 0.00 | 93 | 1008.3 |
| 20260507032456 | 13 | 265 | 0.0 | 3.2 | 0.00 | 0.00 | 0.00 | 92 | 1008.2 |
| 20260507031947 | 13 | 265 | 0.0 | 3.2 | 0.00 | 0.00 | 0.00 | 92 | 1008.2 |
| 20260507031435 | 13 | 265 | 0.0 | 3.2 | 0.00 | 0.00 | 0.00 | 92 | 1008.2 |
| 20260507030931 | 13 | 262 | 1.6 | 3.2 | 0.00 | 0.00 | 0.00 | 92 | 1008.2 |
| 20260507030430 | 13 | 311 | 1.6 | 3.2 | 0.00 | 0.00 | 0.00 | 92 | 1008.2 |
| 20260507025933 | 13 | 61 | 0.0 | 3.2 | 0.00 | 0.00 | 0.00 | 91 | 1008.3 |
| 20260507025429 | 13 | 61 | 0.0 | 3.2 | 0.00 | 0.00 | 0.00 | 91 | 1008.3 |
| 20260507024933 | 13 | 61 | 0.0 | 3.2 | 0.00 | 0.00 | 0.00 | 90 | 1008.3 |
| 20260507024431 | 13 | 61 | 0.0 | 3.2 | 0.00 | 0.00 | 0.00 | 89 | 1008.3 |
| 20260507023929 | 13 | 61 | 0.0 | 3.2 | 0.00 | 0.00 | 0.00 | 89 | 1008.2 |
| 20260507023429 | 14 | 61 | 1.6 | 3.2 | 0.00 | 0.00 | 0.00 | 88 | 1008.2 |
| 20260507022928 | 14 | 47 | 1.6 | 3.2 | 0.00 | 0.00 | 0.00 | 88 | 1008.1 |
| 20260507022427 | 14 | 299 | 1.6 | 3.2 | 0.00 | 0.00 | 0.00 | 88 | 1008.2 |
| 20260507021921 | 14 | 279 | 1.6 | 3.2 | 0.00 | 0.00 | 0.00 | 88 | 1008.3 |
| 20260507021410 | 14 | 331 | 0.0 | 3.2 | 0.00 | 0.00 | 0.00 | 88 | 1008.2 |
| 20260507020904 | 14 | 330 | 0.0 | 3.2 | 0.00 | 0.00 | 0.00 | 88 | 1008.3 |
| 20260507020401 | 14 | 58 | 1.6 | 3.2 | 0.00 | 0.00 | 0.00 | 87 | 1008.3 |
| 20260507015903 | 15 | 55 | 1.6 | 3.2 | 0.00 | 0.00 | 0.00 | 86 | 1008.3 |
| 20260507015407 | 15 | 52 | 1.6 | 3.2 | 0.00 | 0.00 | 0.00 | 85 | 1008.3 |
| 20260507014848 | 15 | 92 | 1.6 | 4.8 | 0.00 | 0.00 | 0.00 | 85 | 1008.4 |
| 20260507014337 | 15 | 278 | 3.2 | 6.4 | 0.00 | 0.00 | 0.00 | 84 | 1008.4 |
| 20260507013835 | 15 | 283 | 4.8 | 9.7 | 0.00 | 0.00 | 0.00 | 84 | 1008.3 |
| 20260507013329 | 15 | 231 | 8.0 | 14.5 | 0.00 | 0.00 | 0.00 | 83 | 1008.2 |
| 20260507012830 | 15 | 246 | 8.0 | 16.1 | 0.00 | 0.00 | 0.00 | 82 | 1008.2 |
| 20260507012331 | 15 | 188 | 6.4 | 16.1 | 0.00 | 0.00 | 0.00 | 83 | 1008.2 |
| 20260507011829 | 15 | 206 | 6.4 | 16.1 | 0.00 | 0.00 | 0.00 | 84 | 1008.2 |
| 20260507011604 | 15 | 209 | 4.8 | 11.3 | 0.00 | 0.00 | 0.00 | 84 | 1008.1 |
| 20260507010828 | 15 | 209 | 4.8 | 12.9 | 0.00 | 0.00 | 0.00 | 83 | 1008.2 |
| 20260507010331 | 15 | 210 | 4.8 | 12.9 | 0.00 | 0.00 | 0.00 | 83 | 1008.3 |
| 20260507005830 | 15 | 222 | 6.4 | 12.9 | 0.00 | 0.00 | 0.00 | 83 | 1008.2 |
| 20260507005329 | 15 | 201 | 8.0 | 16.1 | 0.00 | 0.00 | 0.00 | 83 | 1008.4 |
| 20260507004830 | 15 | 209 | 8.0 | 16.1 | 0.00 | 0.00 | 0.00 | 82 | 1008.3 |
| 20260507004332 | 15 | 219 | 9.7 | 22.5 | 0.00 | 0.00 | 0.00 | 82 | 1008.2 |
| 20260507003829 | 15 | 238 | 9.7 | 22.5 | 0.00 | 0.00 | 0.00 | 81 | 1008.2 |
| 20260507003330 | 15 | 265 | 8.0 | 17.7 | 0.00 | 0.00 | 0.00 | 80 | 1008.2 |
| 20260507002829 | 15 | 261 | 6.4 | 14.5 | 0.00 | 0.00 | 0.00 | 81 | 1008.4 |
| 20260507002333 | 15 | 261 | 6.4 | 14.5 | 0.00 | 0.00 | 0.00 | 82 | 1008.3 |
| 20260507001830 | 15 | 210 | 6.4 | 16.1 | 0.00 | 0.00 | 0.00 | 82 | 1008.3 |
| 20260507001321 | 15 | 207 | 4.8 | 14.5 | 0.00 | 0.00 | 0.00 | 83 | 1008.2 |
| 20260507000843 | 15 | 181 | 3.2 | 14.5 | 0.00 | 0.00 | 0.00 | 84 | 1008.2 |
| 20260507000837 | 15 | 187 | 3.2 | 14.5 | 0.00 | 0.00 | 0.00 | 83 | 1008.2 |
| 20260506235811 | 15 | 208 | 3.2 | 12.9 | 0.00 | 0.00 | 0.00 | 84 | 1008.3 |
| 20260506235312 | 15 | 217 | 4.8 | 12.9 | 0.00 | 0.00 | 0.00 | 84 | 1008.3 |
| 20260506234809 | 15 | 198 | 4.8 | 9.7 | 0.00 | 0.00 | 0.00 | 84 | 1008.1 |
| 20260506234306 | 15 | 208 | 4.8 | 9.7 | 0.00 | 0.00 | 0.00 | 84 | 1008.1 |
| 20260506233806 | 15 | 192 | 3.2 | 9.7 | 0.00 | 0.00 | 0.00 | 84 | 1008.2 |
| 20260506233539 | 15 | 228 | 3.2 | 9.7 | 0.00 | 0.00 | 0.00 | 84 | 1008.2 |
| 20260506232806 | 15 | 144 | 3.2 | 9.7 | 0.00 | 0.00 | 0.00 | 84 | 1008.1 |
| 20260506232534 | 15 | 199 | 3.2 | 9.7 | 0.00 | 0.00 | 0.00 | 85 | 1008.1 |
| 20260506231807 | 15 | 230 | 3.2 | 8.0 | 0.00 | 0.00 | 0.00 | 85 | 1008.2 |
| 20260506231301 | 15 | 227 | 1.6 | 6.4 | 0.00 | 0.00 | 0.00 | 85 | 1008.2 |
| 20260506230800 | 15 | 273 | 0.0 | 3.2 | 0.00 | 0.00 | 0.00 | 85 | 1008.3 |
| 20260506230301 | 15 | 329 | 0.0 | 3.2 | 0.00 | 0.00 | 0.00 | 85 | 1008.5 |
| 20260506225803 | 15 | 248 | 1.6 | 9.7 | 0.00 | 0.00 | 0.00 | 85 | 1008.4 |
| 20260506225306 | 15 | 240 | 1.6 | 9.7 | 0.00 | 0.00 | 0.00 | 86 | 1008.3 |
| 20260506224802 | 15 | 267 | 0.0 | 4.8 | 0.00 | 0.00 | 0.00 | 87 | 1008.2 |
| 20260506224300 | 15 | 340 | 0.0 | 3.2 | 0.00 | 0.00 | 0.00 | 87 | 1008.3 |
| 20260506223755 | 15 | 355 | 1.6 | 3.2 | 0.00 | 0.00 | 0.00 | 87 | 1008.3 |
| 20260506223253 | 15 | 317 | 0.0 | 3.2 | 0.00 | 0.00 | 0.00 | 86 | 1008.3 |
| 20260506222758 | 15 | 231 | 0.0 | 3.2 | 0.00 | 0.00 | 0.00 | 86 | 1008.1 |
| 20260506222250 | 15 | 189 | 0.0 | 3.2 | 0.00 | 0.00 | 0.00 | 86 | 1008.1 |
| 20260506221741 | 15 | 153 | 1.6 | 3.2 | 0.00 | 0.00 | 0.00 | 86 | 1008.1 |
| 20260506221237 | 15 | 128 | 1.6 | 3.2 | 0.00 | 0.00 | 0.00 | 86 | 1008.1 |
| 20260506220735 | 15 | 121 | 1.6 | 3.2 | 0.00 | 0.00 | 0.00 | 85 | 1008.1 |
| 20260506220511 | 15 | 90 | 3.2 | 6.4 | 0.00 | 0.00 | 0.00 | 84 | 1008.1 |
| 20260506215729 | 15 | 105 | 1.6 | 6.4 | 0.00 | 0.00 | 0.00 | 84 | 1008.3 |
| 20260506215231 | 15 | 124 | 3.2 | 12.9 | 0.00 | 0.00 | 0.00 | 83 | 1008.2 |
| 20260506214729 | 15 | 184 | 3.2 | 12.9 | 0.00 | 0.00 | 0.00 | 83 | 1008.1 |
| 20260506214232 | 15 | 257 | 3.2 | 9.7 | 0.00 | 0.00 | 0.00 | 84 | 1008.1 |
| 20260506213730 | 15 | 233 | 4.8 | 9.7 | 0.00 | 0.00 | 0.00 | 85 | 1008.1 |
| 20260506213231 | 15 | 217 | 4.8 | 12.9 | 0.00 | 0.00 | 0.00 | 86 | 1007.9 |
| 20260506212732 | 15 | 268 | 3.2 | 12.9 | 0.00 | 0.00 | 0.00 | 86 | 1007.9 |
| 20260506212229 | 15 | 213 | 3.2 | 8.0 | 0.00 | 0.00 | 0.00 | 86 | 1007.8 |
| 20260506211731 | 15 | 207 | 4.8 | 8.0 | 0.00 | 0.00 | 0.00 | 85 | 1007.7 |
| 20260506211228 | 15 | 229 | 4.8 | 8.0 | 0.00 | 0.00 | 0.00 | 85 | 1007.6 |
| 20260506210731 | 15 | 215 | 3.2 | 6.4 | 0.00 | 0.00 | 0.00 | 85 | 1007.7 |
| 20260506210230 | 15 | 227 | 3.2 | 6.4 | 0.00 | 0.00 | 0.00 | 85 | 1007.8 |
| 20260506205729 | 15 | 212 | 3.2 | 6.4 | 0.00 | 0.00 | 0.00 | 84 | 1007.8 |
| 20260506205231 | 15 | 252 | 3.2 | 8.0 | 0.00 | 0.00 | 0.00 | 83 | 1007.7 |
| 20260506205011 | 16 | 246 | 4.8 | 11.3 | 0.00 | 0.00 | 0.00 | 83 | 1007.7 |
| 20260506204232 | 16 | 223 | 6.4 | 12.9 | 0.00 | 0.00 | 0.00 | 83 | 1007.7 |
| 20260506203729 | 16 | 226 | 6.4 | 14.5 | 0.00 | 0.00 | 0.00 | 83 | 1007.7 |
| 20260506203229 | 16 | 211 | 8.0 | 16.1 | 0.00 | 0.00 | 0.00 | 83 | 1007.8 |
| 20260506202730 | 16 | 238 | 8.0 | 16.1 | 0.00 | 0.00 | 0.00 | 83 | 1007.8 |
| 20260506202230 | 16 | 216 | 6.4 | 14.5 | 0.00 | 0.00 | 0.00 | 83 | 1007.7 |
| 20260506201730 | 16 | 199 | 6.4 | 12.9 | 0.00 | 0.00 | 0.00 | 82 | 1007.8 |
| 20260506201232 | 16 | 205 | 6.4 | 14.5 | 0.00 | 0.00 | 0.00 | 82 | 1007.7 |
| 20260506200730 | 16 | 240 | 6.4 | 14.5 | 0.00 | 0.00 | 0.00 | 82 | 1007.8 |
| 20260506200227 | 16 | 275 | 6.4 | 14.5 | 0.00 | 0.00 | 0.00 | 83 | 1007.7 |
| 20260506195725 | 16 | 211 | 4.8 | 14.5 | 0.00 | 0.00 | 0.00 | 83 | 1007.7 |
| 20260506195225 | 16 | 221 | 4.8 | 8.0 | 0.00 | 0.00 | 0.00 | 84 | 1007.8 |
| 20260506194723 | 16 | 207 | 4.8 | 9.7 | 0.00 | 0.00 | 0.00 | 83 | 1007.8 |
| 20260506194223 | 16 | 215 | 3.2 | 11.3 | 0.00 | 0.00 | 0.00 | 83 | 1007.7 |
| 20260506193727 | 16 | 213 | 4.8 | 11.3 | 0.00 | 0.00 | 0.00 | 83 | 1007.7 |
| 20260506193223 | 16 | 219 | 4.8 | 16.1 | 0.00 | 0.00 | 0.00 | 82 | 1007.7 |
| 20260506192724 | 16 | 205 | 4.8 | 16.1 | 0.00 | 0.00 | 0.00 | 82 | 1007.7 |
| 20260506192219 | 16 | 196 | 6.4 | 12.9 | 0.00 | 0.00 | 0.00 | 82 | 1007.6 |
| 20260506191721 | 16 | 231 | 6.4 | 12.9 | 0.00 | 0.00 | 0.00 | 82 | 1007.5 |
| 20260506191213 | 16 | 232 | 4.8 | 11.3 | 0.00 | 0.00 | 0.00 | 81 | 1007.4 |
| 20260506190707 | 16 | 229 | 4.8 | 16.1 | 0.00 | 0.00 | 0.00 | 81 | 1007.4 |
| 20260506190204 | 16 | 153 | 8.0 | 16.1 | 0.00 | 0.00 | 0.00 | 81 | 1007.4 |
| 20260506185707 | 16 | 186 | 8.0 | 16.1 | 0.00 | 0.00 | 0.00 | 81 | 1007.3 |
| 20260506185202 | 16 | 238 | 6.4 | 19.3 | 0.00 | 0.00 | 0.00 | 80 | 1007.2 |
| 20260506184701 | 16 | 205 | 6.4 | 19.3 | 0.00 | 0.00 | 0.00 | 80 | 1007.2 |
| 20260506184203 | 16 | 162 | 6.4 | 19.3 | 0.00 | 0.00 | 0.00 | 80 | 1007.1 |
| 20260506183701 | 16 | 180 | 6.4 | 17.7 | 0.00 | 0.00 | 0.00 | 80 | 1006.9 |
| 20260506183207 | 16 | 217 | 4.8 | 17.7 | 0.00 | 0.00 | 0.00 | 80 | 1006.8 |
| 20260506182704 | 16 | 207 | 4.8 | 12.9 | 0.00 | 0.00 | 0.00 | 80 | 1006.7 |
| 20260506182205 | 16 | 235 | 6.4 | 12.9 | 0.00 | 0.00 | 0.00 | 80 | 1006.7 |
| 20260506181702 | 17 | 184 | 8.0 | 19.3 | 0.00 | 0.00 | 0.00 | 80 | 1006.6 |
| 20260506181443 | 17 | 194 | 8.0 | 19.3 | 0.00 | 0.00 | 0.00 | 80 | 1006.6 |
| 20260506180702 | 17 | 209 | 8.0 | 22.5 | 0.00 | 0.00 | 0.00 | 80 | 1006.6 |
| 20260506180204 | 17 | 199 | 6.4 | 22.5 | 0.00 | 0.00 | 0.00 | 80 | 1006.6 |
| 20260506175704 | 17 | 207 | 4.8 | 14.5 | 0.00 | 0.00 | 0.00 | 80 | 1006.7 |
| 20260506175442 | 17 | 227 | 6.4 | 16.1 | 0.00 | 0.00 | 0.00 | 80 | 1006.7 |
| 20260506174705 | 17 | 208 | 9.7 | 20.9 | 0.00 | 0.00 | 0.00 | 80 | 1006.6 |
| 20260506174156 | 17 | 211 | 9.7 | 20.9 | 0.00 | 0.00 | 0.00 | 80 | 1006.7 |
| 20260506173656 | 17 | 252 | 6.4 | 16.1 | 0.00 | 0.00 | 0.00 | 80 | 1006.7 |
| 20260506173155 | 17 | 200 | 6.4 | 16.1 | 0.00 | 0.00 | 0.00 | 80 | 1006.6 |
| 20260506172655 | 17 | 176 | 4.8 | 16.1 | 0.00 | 0.00 | 0.00 | 80 | 1006.5 |
| 20260506172152 | 17 | 225 | 6.4 | 17.7 | 0.00 | 0.00 | 0.00 | 80 | 1006.6 |
| 20260506171647 | 17 | 211 | 8.0 | 17.7 | 0.00 | 0.00 | 0.00 | 79 | 1006.6 |
| 20260506171142 | 17 | 201 | 8.0 | 20.9 | 0.00 | 0.00 | 0.00 | 79 | 1006.6 |
| 20260506170639 | 17 | 181 | 9.7 | 27.4 | 0.00 | 0.00 | 0.00 | 79 | 1006.6 |
| 20260506170138 | 17 | 201 | 9.7 | 27.4 | 0.00 | 0.00 | 0.00 | 78 | 1006.5 |
| 20260506165640 | 17 | 217 | 9.7 | 24.1 | 0.00 | 0.00 | 0.00 | 78 | 1006.7 |
| 20260506165136 | 17 | 196 | 9.7 | 24.1 | 0.00 | 0.00 | 0.00 | 78 | 1006.6 |
| 20260506164639 | 18 | 229 | 11.3 | 32.2 | 0.00 | 0.00 | 0.00 | 77 | 1006.7 |
| 20260506164131 | 18 | 215 | 11.3 | 32.2 | 0.00 | 0.00 | 0.00 | 77 | 1006.7 |
| 20260506163906 | 18 | 191 | 9.7 | 32.2 | 0.00 | 0.00 | 0.00 | 77 | 1006.7 |
| 20260506163129 | 18 | 215 | 11.3 | 32.2 | 0.00 | 0.00 | 0.00 | 77 | 1006.8 |
| 20260506162630 | 18 | 215 | 14.5 | 32.2 | 0.00 | 0.00 | 0.00 | 77 | 1006.9 |
| 20260506162129 | 18 | 168 | 12.9 | 33.8 | 0.00 | 0.00 | 0.00 | 76 | 1006.9 |
| 20260506161629 | 18 | 175 | 11.3 | 33.8 | 0.00 | 0.00 | 0.00 | 76 | 1007.0 |
| 20260506161130 | 18 | 198 | 11.3 | 32.2 | 0.00 | 0.00 | 0.00 | 75 | 1007.1 |
| 20260506160630 | 18 | 186 | 12.9 | 32.2 | 0.00 | 0.00 | 0.00 | 75 | 1007.1 |
| 20260506160409 | 18 | 195 | 9.7 | 25.7 | 0.00 | 0.00 | 0.00 | 74 | 1007.2 |
| 20260506155619 | 18 | 199 | 8.0 | 22.5 | 0.00 | 0.00 | 0.00 | 74 | 1007.2 |
| 20260506155119 | 19 | 205 | 11.3 | 22.5 | 0.00 | 0.00 | 0.00 | 74 | 1007.1 |
| 20260506154639 | 19 | 217 | 11.3 | 25.7 | 0.00 | 0.00 | 0.00 | 72 | 1007.2 |
| 20260506154630 | 19 | 207 | 11.3 | 25.7 | 0.00 | 0.00 | 0.00 | 73 | 1007.1 |
| 20260506153608 | 19 | 207 | 12.9 | 25.7 | 0.00 | 0.00 | 0.00 | 73 | 1007.3 |
| 20260506153344 | 19 | 202 | 12.9 | 25.7 | 0.00 | 0.00 | 0.00 | 73 | 1007.4 |
| 20260506152609 | 19 | 209 | 14.5 | 33.8 | 0.00 | 0.00 | 0.00 | 73 | 1007.3 |
| 20260506152104 | 19 | 167 | 16.1 | 33.8 | 0.00 | 0.00 | 0.00 | 73 | 1007.2 |
| 20260506151604 | 19 | 200 | 14.5 | 33.8 | 0.00 | 0.00 | 0.00 | 73 | 1007.3 |
| 20260506151343 | 19 | 224 | 11.3 | 32.2 | 0.00 | 0.00 | 0.00 | 71 | 1007.3 |
| 20260506150603 | 19 | 141 | 11.3 | 32.2 | 0.00 | 0.00 | 0.00 | 72 | 1007.3 |
| 20260506145603 | 20 | 207 | 11.3 | 32.2 | 0.00 | 0.00 | 0.00 | 71 | 1007.3 |
| 20260506145105 | 20 | 165 | 11.3 | 24.1 | 0.00 | 0.00 | 0.00 | 71 | 1007.3 |
| 20260506144603 | 20 | 144 | 11.3 | 25.7 | 0.00 | 0.00 | 0.00 | 71 | 1007.3 |
| 20260506144103 | 20 | 263 | 11.3 | 30.6 | 0.00 | 0.00 | 0.00 | 70 | 1007.3 |
| 20260506143603 | 20 | 219 | 12.9 | 30.6 | 0.00 | 0.00 | 0.00 | 69 | 1007.2 |
| 20260506143102 | 20 | 188 | 12.9 | 32.2 | 0.00 | 0.00 | 0.00 | 69 | 1007.4 |
| 20260506142602 | 21 | 169 | 14.5 | 32.2 | 0.00 | 0.00 | 0.00 | 67 | 1007.5 |
| 20260506142101 | 21 | 220 | 11.3 | 33.8 | 0.00 | 0.00 | 0.00 | 67 | 1007.6 |
| 20260506141603 | 21 | 119 | 11.3 | 33.8 | 0.00 | 0.00 | 0.00 | 65 | 1007.6 |
| 20260506141101 | 22 | 164 | 12.9 | 37.0 | 0.00 | 0.00 | 0.00 | 64 | 1007.6 |
| 20260506140602 | 22 | 215 | 14.5 | 37.0 | 0.00 | 0.00 | 0.00 | 62 | 1007.6 |
| 20260506140343 | 22 | 144 | 11.3 | 32.2 | 0.00 | 0.00 | 0.00 | 65 | 1007.7 |
| 20260506135847 | 22 | 213 | 11.3 | 30.6 | 0.00 | 0.00 | 0.00 | 64 | 1007.6 |
| 20260506135100 | 22 | 174 | 12.9 | 30.6 | 0.00 | 0.00 | 0.00 | 63 | 1007.6 |
| 20260506134846 | 22 | 173 | 11.3 | 33.8 | 0.00 | 0.00 | 0.00 | 62 | 1007.6 |
| 20260506134101 | 22 | 93 | 11.3 | 33.8 | 0.00 | 0.00 | 0.00 | 62 | 1007.7 |
| 20260506133602 | 22 | 185 | 11.3 | 27.4 | 0.00 | 0.00 | 0.00 | 64 | 1007.6 |
| 20260506133101 | 21 | 198 | 12.9 | 29.0 | 0.00 | 0.00 | 0.00 | 65 | 1007.5 |
| 20260506132604 | 21 | 235 | 12.9 | 29.0 | 0.00 | 0.00 | 0.00 | 65 | 1007.5 |
| 20260506132058 | 21 | 178 | 12.9 | 33.8 | 0.00 | 0.00 | 0.00 | 64 | 1007.7 |
| 20260506131559 | 21 | 130 | 12.9 | 33.8 | 0.00 | 0.00 | 0.00 | 63 | 1007.8 |
| 20260506131056 | 21 | 213 | 11.3 | 30.6 | 0.00 | 0.00 | 0.00 | 63 | 1007.7 |
| 20260506130843 | 21 | 216 | 11.3 | 30.6 | 0.00 | 0.00 | 0.00 | 62 | 1007.8 |
| 20260506130056 | 22 | 192 | 11.3 | 30.6 | 0.00 | 0.00 | 0.00 | 61 | 1007.9 |
| 20260506125552 | 23 | 156 | 12.9 | 33.8 | 0.00 | 0.00 | 0.00 | 58 | 1008.1 |
| 20260506125050 | 23 | 269 | 14.5 | 33.8 | 0.00 | 0.00 | 0.00 | 59 | 1008.1 |
| 20260506124546 | 23 | 163 | 11.3 | 29.0 | 0.00 | 0.00 | 0.00 | 58 | 1007.9 |
| 20260506124338 | 23 | 233 | 11.3 | 32.2 | 0.00 | 0.00 | 0.00 | 58 | 1007.9 |
| 20260506123544 | 23 | 135 | 11.3 | 32.2 | 0.00 | 0.00 | 0.00 | 58 | 1007.8 |
| 20260506123034 | 24 | 173 | 11.3 | 29.0 | 0.00 | 0.00 | 0.00 | 56 | 1008.3 |
| 20260506122817 | 23 | 232 | 11.3 | 32.2 | 0.00 | 0.00 | 0.00 | 58 | 1008.3 |
| 20260506122030 | 24 | 195 | 9.7 | 32.2 | 0.00 | 0.00 | 0.00 | 57 | 1008.3 |
| 20260506121533 | 24 | 208 | 8.0 | 27.4 | 0.00 | 0.00 | 0.00 | 56 | 1008.3 |
| 20260506121031 | 23 | 210 | 8.0 | 24.1 | 0.00 | 0.00 | 0.00 | 59 | 1008.3 |
| 20260506120530 | 23 | 247 | 9.7 | 24.1 | 0.00 | 0.00 | 0.00 | 60 | 1008.2 |
| 20260506120031 | 23 | 284 | 11.3 | 29.0 | 0.00 | 0.00 | 0.00 | 58 | 1008.2 |
| 20260506115538 | 23 | 161 | 9.7 | 29.0 | 0.00 | 0.00 | 0.00 | 58 | 1008.3 |
| 20260506115028 | 23 | 114 | 9.7 | 22.5 | 0.00 | 0.00 | 0.00 | 58 | 1008.2 |
| 20260506114517 | 23 | 157 | 8.0 | 24.1 | 0.00 | 0.00 | 0.00 | 56 | 1008.4 |
| 20260506114016 | 23 | 167 | 9.7 | 24.1 | 0.00 | 0.00 | 0.00 | 57 | 1008.4 |
| 20260506113514 | 23 | 191 | 9.7 | 27.4 | 0.00 | 0.00 | 0.00 | 58 | 1008.5 |
| 20260506113011 | 23 | 203 | 6.4 | 27.4 | 0.00 | 0.00 | 0.00 | 57 | 1008.5 |
| 20260506112511 | 23 | 182 | 6.4 | 20.9 | 0.00 | 0.00 | 0.00 | 59 | 1008.7 |
| 20260506112009 | 23 | 123 | 6.4 | 20.9 | 0.00 | 0.00 | 0.00 | 60 | 1008.6 |
| 20260506111511 | 22 | 203 | 4.8 | 20.9 | 0.00 | 0.00 | 0.00 | 61 | 1008.6 |
| 20260506111011 | 22 | 198 | 4.8 | 14.5 | 0.00 | 0.00 | 0.00 | 62 | 1008.6 |
| 20260506110747 | 22 | 163 | 6.4 | 20.9 | 0.00 | 0.00 | 0.00 | 61 | 1008.7 |
| 20260506110007 | 22 | 169 | 8.0 | 20.9 | 0.00 | 0.00 | 0.00 | 60 | 1008.9 |
| 20260506105745 | 23 | 234 | 6.4 | 20.9 | 0.00 | 0.00 | 0.00 | 60 | 1009.0 |
| 20260506105005 | 22 | 196 | 6.4 | 24.1 | 0.00 | 0.00 | 0.00 | 63 | 1008.9 |
| 20260506104502 | 21 | 123 | 6.4 | 24.1 | 0.00 | 0.00 | 0.00 | 64 | 1008.8 |
| 20260506104236 | 21 | 174 | 6.4 | 20.9 | 0.00 | 0.00 | 0.00 | 64 | 1008.8 |
| 20260506103505 | 21 | 211 | 6.4 | 20.9 | 0.00 | 0.00 | 0.00 | 65 | 1008.7 |
| 20260506103003 | 21 | 265 | 8.0 | 22.5 | 0.00 | 0.00 | 0.00 | 65 | 1008.8 |
| 20260506102746 | 20 | 202 | 9.7 | 33.8 | 0.00 | 0.00 | 0.00 | 65 | 1008.8 |
| 20260506102001 | 20 | 202 | 9.7 | 33.8 | 0.00 | 0.00 | 0.00 | 65 | 1008.8 |
| 20260506101503 | 20 | 240 | 9.7 | 27.4 | 0.00 | 0.00 | 0.00 | 64 | 1008.8 |
| 20260506101002 | 20 | 229 | 9.7 | 27.4 | 0.00 | 0.00 | 0.00 | 63 | 1008.9 |